Date String (YYYY-MM-DD hh:mm:ss) UTC,Instrument flags,Ambient pressure (hPa),Sample flow (lpm),Bypass flow (lpm),Sample temperature (°C),Ambient temperature (°C),ASC tube jacket temperature (°C),LED temperature (°C),Box temperature (°C),Sample RH (%),Span deviation,Mass concentration (μg/m³),Mass concentration (μg/m³),Mass concentration (μg/m³)
DateTimeUTC,F1_M11,P_M11,Q1_M11,Q2_M11,T1_M11,T2_M11,T3_M11,T4_M11,T5_M11,U1_M11,ZSPAN_M11,X0_M11,X2_M11,X1_M11
2023-02-09 23:00:00,,0834.0,5.01,0.00,23.2,21.5,00.0,32.1,24.9,06.5,0000.0,0003.31,0001.39,0001.06
2023-02-09 23:01:00,,0834.0,4.94,0.00,23.2,21.5,00.0,32.1,24.8,06.6,0000.0,0002.93,0001.38,0001.06
2023-02-09 23:02:00,,0834.0,5.04,0.00,23.2,21.5,00.0,32.1,24.8,06.7,0000.0,0002.86,0001.35,0001.07
2023-02-09 23:03:00,,0834.1,5.04,0.00,23.1,21.5,00.0,32.1,24.8,06.8,0000.0,0002.84,0001.34,0001.08
2023-02-09 23:04:00,,0834.1,5.00,0.00,23.1,21.5,00.0,32.1,24.8,06.8,0000.0,0002.77,0001.36,0001.09
2023-02-09 23:05:00,,0834.1,4.90,0.00,23.1,21.5,00.0,32.1,24.8,06.8,0000.0,0002.78,0001.36,0001.10
2023-02-09 23:06:00,,0834.1,4.95,0.00,23.1,21.5,00.0,32.0,24.8,06.7,0000.0,0002.74,0001.35,0001.09
2023-02-09 23:07:00,,0834.1,5.07,0.00,23.1,21.4,00.0,32.0,24.8,06.8,0000.0,0002.77,0001.36,0001.10
2023-02-09 23:08:00,,0834.1,5.03,0.00,23.1,21.4,00.0,32.0,24.7,06.6,0000.0,0002.87,0001.37,0001.10
2023-02-09 23:09:00,,0834.1,4.95,0.00,23.0,21.4,00.0,32.0,24.7,06.6,0000.0,0002.92,0001.38,0001.10
2023-02-09 23:10:00,,0834.1,4.97,0.00,23.0,21.4,00.0,32.0,24.7,06.7,0000.0,0002.92,0001.38,0001.10
2023-02-09 23:11:00,,0834.0,5.06,0.00,23.0,21.4,00.0,32.0,24.7,06.7,0000.0,0002.51,0001.37,0001.10
2023-02-09 23:12:00,,0834.0,5.07,0.00,23.0,21.4,00.0,32.0,24.7,06.6,0000.0,0002.26,0001.38,0001.10
2023-02-09 23:13:00,,0834.1,5.08,0.00,23.0,21.4,00.0,31.9,24.7,06.7,0000.0,0002.20,0001.41,0001.09
2023-02-09 23:14:00,,0834.1,4.99,0.00,23.0,21.4,00.0,31.9,24.7,06.7,0000.0,0002.24,0001.42,0001.09
2023-02-09 23:15:00,,0834.1,4.92,0.00,23.0,21.4,00.0,31.9,24.7,06.5,0000.0,0002.12,0001.36,0001.07
2023-02-09 23:16:00,,0834.1,4.96,0.00,23.0,21.4,00.0,31.9,24.7,06.6,0000.0,0002.09,0001.35,0001.06
2023-02-09 23:17:00,,0834.1,5.00,0.00,23.0,21.3,00.0,31.9,24.6,06.7,0000.0,0002.04,0001.32,0001.05
2023-02-09 23:18:00,,0834.1,5.02,0.00,23.0,21.5,00.0,31.9,24.7,06.6,0000.0,0003.15,0001.31,0001.04
2023-02-09 23:19:00,,0834.1,5.02,0.00,23.1,22.2,00.0,31.8,24.9,06.6,0000.0,0003.47,0001.30,0001.04
2023-02-09 23:20:00,,0834.2,4.96,0.00,23.1,23.1,00.0,31.8,25.1,06.7,0000.0,0003.44,0001.28,0001.03
2023-02-09 23:21:00,,0834.2,4.98,0.00,23.2,23.1,00.0,31.9,25.1,06.6,0000.0,0003.43,0001.27,0001.03
2023-02-09 23:22:00,,0834.2,4.99,0.00,23.2,22.7,00.0,31.9,25.0,06.4,0000.0,0003.61,0001.26,0001.02
2023-02-09 23:23:00,,0834.2,5.02,0.00,23.2,22.4,00.0,32.0,24.9,06.4,0000.0,0004.39,0001.29,0001.02
2023-02-09 23:24:00,,0834.2,5.02,0.00,23.2,22.1,00.0,32.0,24.9,06.5,0000.0,0004.36,0001.23,0001.02
2023-02-09 23:25:00,,0834.3,4.90,0.00,23.2,22.0,00.0,32.0,24.8,06.6,0000.0,0004.44,0001.25,0001.02
2023-02-09 23:26:00,,0834.3,4.97,0.00,23.2,21.8,00.0,32.0,24.8,06.5,0000.0,0004.55,0001.26,0001.01
2023-02-09 23:27:00,,0834.3,5.03,0.00,23.1,21.7,00.0,32.0,24.8,06.5,0000.0,0004.57,0001.27,0001.01
2023-02-09 23:28:00,,0834.3,5.05,0.00,23.1,21.6,00.0,32.0,24.8,06.5,0000.0,0004.61,0001.29,0001.02
2023-02-09 23:29:00,,0834.3,5.03,0.00,23.1,21.6,00.0,32.0,24.8,06.5,0000.0,0003.84,0001.28,0001.01
2023-02-09 23:30:00,,0834.3,4.98,0.00,23.1,21.5,00.0,32.0,24.8,06.5,0000.0,0003.07,0001.30,0001.01
2023-02-09 23:31:00,,0834.2,4.95,0.00,23.1,21.5,00.0,32.0,24.7,06.5,0000.0,0003.05,0001.30,0001.02
2023-02-09 23:32:00,,0834.3,4.98,0.00,23.0,21.4,00.0,31.9,24.7,06.6,0000.0,0003.08,0001.31,0001.02
2023-02-09 23:33:00,,0834.3,4.97,0.00,23.0,21.4,00.0,31.9,24.6,06.6,0000.0,0002.95,0001.32,0001.03
2023-02-09 23:34:00,,0834.3,5.00,0.00,23.0,21.4,00.0,31.9,24.6,06.6,0000.0,0002.19,0001.30,0001.03
2023-02-09 23:35:00,,0834.3,4.97,0.00,23.0,21.3,00.0,31.9,24.6,06.6,0000.0,0002.11,0001.31,0001.04
2023-02-09 23:36:00,,0834.2,4.99,0.00,22.9,21.2,00.0,31.9,24.6,06.6,0000.0,0001.99,0001.28,0001.03
2023-02-09 23:37:00,,0834.3,5.00,0.00,22.9,21.1,00.0,31.9,24.6,06.6,0000.0,0001.87,0001.27,0001.03
2023-02-09 23:38:00,,0834.3,5.01,0.00,22.9,21.1,00.0,31.9,24.6,06.6,0000.0,0001.91,0001.28,0001.04
2023-02-09 23:39:00,,0834.3,5.03,0.00,22.9,21.1,00.0,31.9,24.6,06.7,0000.0,0001.85,0001.27,0001.05
2023-02-09 23:40:00,,0834.3,5.04,0.00,22.9,21.1,00.0,31.8,24.5,06.6,0000.0,0001.78,0001.25,0001.06
2023-02-09 23:41:00,,0834.3,5.00,0.00,22.9,21.1,00.0,31.8,24.5,06.6,0000.0,0001.71,0001.22,0001.05
2023-02-09 23:42:00,,0834.3,4.98,0.00,22.9,21.2,00.0,31.8,24.5,06.7,0000.0,0001.76,0001.23,0001.05
2023-02-09 23:43:00,,0834.3,4.95,0.00,22.8,21.2,00.0,31.8,24.5,06.7,0000.0,0001.67,0001.21,0001.05
2023-02-09 23:44:00,,0834.3,5.04,0.00,22.8,21.2,00.0,31.8,24.5,06.8,0000.0,0001.67,0001.19,0001.05
2023-02-09 23:45:00,,0834.3,4.98,0.00,22.8,21.2,00.0,31.8,24.5,06.9,0000.0,0001.65,0001.18,0001.05
2023-02-09 23:46:00,,0834.3,4.98,0.00,22.8,21.2,00.0,31.8,24.5,06.9,0000.0,0001.65,0001.20,0001.07
2023-02-09 23:47:00,,0834.3,5.03,0.00,22.8,21.2,00.0,31.7,24.5,07.0,0000.0,0001.73,0001.24,0001.11
2023-02-09 23:48:00,,0834.3,4.97,0.00,22.8,21.1,00.0,31.7,24.5,07.2,0000.0,0001.80,0001.29,0001.13
2023-02-09 23:49:00,,0834.4,5.02,0.00,22.8,21.1,00.0,31.7,24.4,07.2,0000.0,0002.05,0001.31,0001.14
2023-02-09 23:50:00,,0834.3,5.01,0.00,22.8,21.1,00.0,31.7,24.4,07.1,0000.0,0002.89,0001.39,0001.16
2023-02-09 23:51:00,,0834.4,4.94,0.00,22.8,21.0,00.0,31.7,24.4,07.0,0000.0,0003.17,0001.47,0001.18
2023-02-09 23:52:00,,0834.4,5.01,0.00,22.7,21.0,00.0,31.7,24.4,06.9,0000.0,0003.30,0001.52,0001.20
2023-02-09 23:53:00,,0834.4,4.98,0.00,22.7,21.0,00.0,31.7,24.3,07.0,0000.0,0003.31,0001.54,0001.22
2023-02-09 23:54:00,,0834.4,5.02,0.00,22.7,20.9,00.0,31.6,24.3,06.9,0000.0,0003.41,0001.59,0001.24
2023-02-09 23:55:00,,0834.4,4.97,0.00,22.7,20.8,00.0,31.6,24.3,06.9,0000.0,0003.48,0001.63,0001.26
2023-02-09 23:56:00,,0834.4,4.93,0.00,22.6,20.8,00.0,31.6,24.3,07.1,0000.0,0003.78,0001.68,0001.28
2023-02-09 23:57:00,,0834.4,4.99,0.00,22.6,20.7,00.0,31.6,24.2,07.2,0000.0,0004.33,0001.71,0001.28
2023-02-09 23:58:00,,0834.4,4.97,0.00,22.6,20.7,00.0,31.6,24.2,07.1,0000.0,0004.43,0001.71,0001.28
2023-02-09 23:59:00,,0834.4,4.98,0.00,22.6,20.7,00.0,31.5,24.2,07.0,0000.0,0004.39,0001.69,0001.28
